Location: L�Ave Maria
(50.7161°N, 1.5911°E)
Time: 00:03:21
(UTC+00:00)

Genesis I - Pass Details

Date: 10 July 2020
Orbit: 509 x 513 km, 64.5° (Epoch: 03 August)

Event Time Altitude Azimuth Distance (km) Brightness Sun altitude
Rises 20:48:15 0° 187° (S) 2,611 6.4 -5.9°
Reaches altitude 10° 20:50:41 10° 174° (S) 1,730 5.4 -6.2°
Maximum altitude 20:53:51 25° 118° (ESE) 1,078 4.3 -6.6°
Drops below altitude 10° 20:57:02 10° 63° (ENE) 1,739 5.7 -6.9°
Sets 20:59:29 0° 50° (NE) 2,630 6.8 -7.1°
